Dewpoint
57 58 59 60 60 60 59 57 54 48 46 42 39 37 35 32 31 29 30 30 29 28 29 29 29 29 28 29 31 30 29 29 28 25 26 27 28 29 29 30 29 28 30
55 57 58 58 57 56 54 52 48 46 42 38 36 34 31 29 28 27 25 25 26 27 27 28 26 24 27 28 29 28 28 29 28 27 28 26 27 29 30 29 27 27 30
46 54 54 53 53 53 50 47 45 41 39 34 33 31 30 28 27 26 25 27 27 27 27 26 25 26 28 29 28 28 28 26 29 29 28 28 29 29 29 29 29 30 29
47 48 50 51 51 49 47 44 41 38 35 31 30 29 29 26 26 25 26 27 27 27 29 27 26 26 28 29 29 29 28 30 30 29 28 28 28 28 29 27 27 29 29
46 47 48 47 46 44 41 40 37 34 33 28 27 27 26 25 24 25 26 27 26 27 29 27 28 28 29 30 29 29 29 30 29 28 27 27 26 26 26 27 26 26 29
46 46 45 41 38 38 36 34 32 31 28 27 26 25 25 21 31 31 29 28 27 27 28 29 28 29 29 29 28 28 28 28 32 29 27 26 26 27 27 27 26 25 24
44 40 37 37 36 35 32 30 30 28 25 24 24 25 26 29 32 31 31 28 27 27 27 28 28 28 29 28 29 29 29 29 28 29 29 30 30 32 29 26 26 26 24
41 38 36 35 33 31 29 29 26 24 23 22 24 25 29 31 33 32 30 28 28 27 27 28 27 27 27 28 29 30 29 30 31 32 33 33 33 33 31 28 27 26 26
37 37 35 34 32 29 28 26 24 24 24 25 26 28 30 32 33 32 29 29 27 26 27 27 26 26 26 27 29 28 29 31 31 28 30 33 33 28 27 28 26 24 26
36 35 34 33 33 30 28 26 25 26 26 24 27 29 30 32 32 31 29 29 28 26 26 25 25 26 26 27 30 30 28 28 31 32 32 33 32 29 26 27 26 24 24
34 32 32 32 32 30 27 25 26 26 26 26 26 27 29 31 31 30 28 28 28 27 26 25 26 25 26 27 28 32 29 31 30 31 32 33 32 29 27 26 25 24 25
32 31 31 32 30 28 27 27 26 26 25 25 25 23 25 26 28 29 28 27 27 27 26 26 26 25 27 28 28 28 28 28 32 30 28 28 28 28 28 27 24 23 22
31 31 31 30 30 29 27 26 25 25 23 23 22 22 21 23 26 27 27 27 28 26 26 26 26 26 26 26 25 25 24 26 27 26 27 25 26 26 27 26 24 22 19
32 30 29 28 28 27 26 25 25 24 23 22 22 21 21 21 22 25 25 27 26 26 26 26 25 24 24 25 21 20 21 24 24 24 25 25 26 26 26 26 24 23 21
31 28 28 28 27 25 25 24 23 24 23 23 23 23 22 21 22 23 25 25 26 26 25 24 23 21 20 19 18 18 18 20 22 22 23 22 24 25 24 25 24 24 21
28 27 26 25 25 23 22 21 21 22 22 23 24 24 24 23 23 24 26 27 27 26 23 22 20 18 16 15 15 15 15 17 18 19 20 20 21 21 22 25 25 24 22
28 27 25 23 22 21 21 21 21 24 24 24 25 25 24 25 27 27 27 26 25 24 21 19 18 15 13 12 12 12 12 13 14 15 17 18 18 19 20 23 25 23 22
27 25 24 24 23 22 21 21 22 21 22 22 26 26 26 27 27 26 26 24 20 17 17 16 14 12 11 10 9 10 10 10 11 12 13 14 15 16 18 20 22 23 23
25 23 23 23 22 22 21 21 21 21 21 20 17 21 24 24 25 25 25 19 18 16 13 11 10 9 8 8 7 7 7 8 9 8 10 12 13 14 15 17 19 21 21
23 22 22 22 21 21 21 22 22 22 22 19 16 17 17 19 20 18 16 13 12 12 10 9 7 6 6 6 6 6 6 7 8 8 8 9 11 12 12 14 16 17 19
21 20 20 21 21 21 21 21 21 22 22 20 19 17 16 15 16 15 13 10 9 9 8 7 6 5 5 4 4 5 4 5 6 5 6 7 8 7 10 11 14 16 18
18 18 18 18 18 18 18 18 18 18 17 16 15 14 20 15 13 12 10 9 8 7 6 6 5 5 4 4 4 4 4 4 4 4 4 4 5 6 8 10 12 13 15
15 15 15 15 16 15 16 16 16 15 15 14 14 12 12 15 12 10 9 8 6 5 4 3 3 2 2 1 2 2 3 3 4 4 2 3 4 5 7 8 10 11 11
12 14 14 14 14 14 14 13 12 10 11 11 11 10 8 9 8 7 7 6 4 3 2 0 0 -0 0 -0 1 1 1 0 2 2 1 1 2 4 6 6 7 9 9
9 9 9 9 10 10 10 11 10 10 10 10 9 8 7 6 5 5 5 4 2 1 0 -1 -1 -1 -2 -2 -2 -2 -2 -1 -1 0 2 2 2 3 4 5 6 6 7
5 6 7 8 9 9 9 9 9 8 8 8 8 7 6 5 5 4 3 2 1 1 1 0 -1 -2 -2 -3 -3 -2 -2 -0 -0 -1 2 4 5 6 6 5 5 5 5
Lifted_Index
3 3 2 2 2 1 1 0 -0 -1 -0 1 2 3 4 5 7 10 13 15 16 16 16 16 16 16 16 16 16 16 16 15 15 15 15 16 17 17 17 18 18 18 19
4 4 3 3 2 1 1 0 -0 -0 -0 1 2 3 4 5 7 11 14 16 16 16 16 16 16 16 16 16 16 16 16 15 15 15 15 15 16 17 17 17 18 18 19
6 5 4 3 3 2 1 1 0 0 0 1 2 3 4 5 9 12 15 16 16 16 16 16 15 15 16 16 16 16 15 15 15 15 15 15 16 17 17 17 17 18 18
7 7 6 5 4 3 2 2 1 1 1 1 2 3 4 6 10 14 16 16 16 16 16 16 15 16 16 16 16 15 15 15 15 14 14 15 15 16 16 16 16 17 17
8 8 8 8 7 5 4 3 2 2 1 2 3 4 5 8 12 15 16 16 16 16 16 16 16 16 16 16 16 15 15 15 15 14 14 14 15 15 16 16 16 16 16
9 9 9 8 8 7 5 4 3 2 2 3 4 5 6 10 14 16 16 16 16 16 15 15 16 16 16 16 15 15 15 15 15 14 14 14 14 15 16 16 16 15 15
8 8 8 8 7 6 5 4 3 2 2 3 4 5 8 12 15 16 16 16 16 16 15 15 16 16 16 16 15 15 15 15 15 15 14 15 15 16 16 16 16 15 15
8 7 7 6 6 5 4 4 3 3 3 4 4 6 10 13 15 16 16 16 16 16 16 16 16 16 16 15 15 15 15 15 15 16 16 16 16 16 16 16 15 15 14
7 6 6 5 4 4 4 3 3 3 3 4 6 9 12 14 15 16 16 16 16 15 16 16 16 15 15 15 15 14 14 15 15 16 16 16 17 17 17 16 15 14 13
6 6 5 4 4 3 3 3 3 3 3 5 8 11 13 14 15 16 16 16 15 16 16 16 15 15 15 15 15 14 14 14 15 15 16 16 16 16 16 16 15 13 13
6 5 5 4 3 3 2 2 2 2 4 6 9 12 14 15 15 16 16 16 16 16 15 15 14 14 15 15 15 15 15 15 15 15 15 15 15 16 16 15 14 13 12
6 5 4 4 3 3 2 2 2 2 4 6 9 11 13 15 15 16 16 16 16 15 14 13 14 15 15 15 15 15 16 16 15 15 14 15 15 15 15 14 14 13 12
5 5 5 4 4 3 3 2 2 3 4 7 9 11 13 15 16 16 16 16 15 13 12 13 15 16 16 16 16 16 16 16 15 15 14 14 15 14 14 13 12 12 11
4 4 5 5 4 4 3 3 3 5 7 9 10 11 13 15 16 16 15 14 13 12 12 14 15 16 16 16 16 16 16 16 16 15 15 15 14 14 13 12 11 11 10
4 4 4 4 5 4 4 5 6 9 10 11 12 14 15 16 15 14 13 12 11 12 13 15 16 16 16 16 16 16 16 16 16 15 15 14 14 13 12 11 11 10 10
4 4 5 5 5 5 6 7 9 12 14 15 16 16 16 15 14 12 12 11 12 13 15 15 15 15 15 15 15 16 16 16 15 15 15 14 13 12 11 11 10 10 9
5 5 6 6 6 7 7 8 9 12 14 16 17 17 16 14 12 12 11 12 13 14 15 15 15 15 15 15 15 15 15 15 15 15 14 13 12 12 11 10 10 9 9
6 6 7 7 7 8 8 9 10 12 13 15 16 16 14 12 12 12 12 12 13 14 14 14 15 15 16 16 16 15 15 15 15 14 13 13 12 11 11 10 10 9 9
7 7 7 8 8 9 9 10 12 13 14 15 15 15 13 12 12 12 12 13 13 14 14 15 15 16 16 16 16 15 15 14 14 13 13 12 12 11 10 10 10 9 9
7 7 8 8 8 9 10 11 13 14 14 15 15 13 12 12 12 12 13 13 14 14 14 15 16 16 16 16 16 15 15 14 14 13 12 12 12 11 11 10 10 9 9
7 8 8 9 9 9 10 12 13 14 14 14 14 13 12 12 12 13 14 14 14 14 15 16 16 16 16 16 16 15 14 14 13 13 13 12 12 11 11 10 10 9 9
9 9 9 10 10 11 12 13 14 14 14 14 13 13 12 12 13 14 14 14 13 14 15 16 16 16 16 16 16 15 14 14 14 13 13 12 12 12 11 11 10 10 10
10 11 11 12 12 13 14 15 15 15 14 14 13 13 13 13 14 15 14 13 13 14 15 16 16 16 16 16 16 16 15 14 14 14 13 13 12 12 12 11 11 10 10
13 13 12 13 13 14 15 15 15 15 14 13 13 13 13 14 15 15 15 14 13 15 16 17 16 16 16 16 16 16 16 15 15 15 14 14 13 12 12 12 11 11 11
15 14 14 13 13 14 14 14 14 14 13 13 13 13 14 15 15 15 14 14 15 15 16 17 17 16 16 16 16 16 16 16 16 16 15 15 14 13 13 12 12 12 12
16 16 15 14 14 13 13 13 13 13 13 13 13 14 14 15 15 14 14 15 15 16 16 16 16 16 16 16 16 16 16 16 16 16 16 15 14 14 13 13 12 12 12